Location: Lane
(33.5226°N, 79.8788°W)
Time: 17:51:40
(UTC+00:00)

Transit 2A - Pass Details

Date: 29 September 2022
Orbit: 598 x 959 km, 66.7° (Epoch: 06 December)

Event Time Altitude Azimuth Distance (km) Brightness Sun altitude
Rises 13:13:35 0° 350° (N) 2,971 8.8 23.8°
Reaches altitude 10° 13:16:22 10° 8° (N) 2,111 8.2 24.4°
Maximum altitude 13:19:53 20° 56° (NE) 1,610 8.3 25.0°
Drops below altitude 10° 13:23:38 10° 103° (ESE) 2,267 10.2 25.8°
Sets 13:26:44 0° 120° (ESE) 3,265 10.6 26.4°
